Regional Weather Roundup
Issued by NWS

Home | Current Version | Previous Version | Graphics & Text | Print | Product List | Glossary On
Versions: 1 2 3 4 5 6 7 8 9 10 11 12 13 14 15 16 17 18 19 20 21 22 23 24 25 26 27 28 29 30 31 32 33 34 35 36 37 38 39 40 41 42 43 44 45 46 47 48 49 50
000
ASUS44 KMEG 271300
RWRTN
TENNESSEE HOURLY STATE WEATHER ROUNDUP
NATIONAL WEATHER SERVICE MEMPHIS TN
800 AM CDT MON MAR 27 2017

TNZ002-004-019-021-049-052-054-088>092-271400-
WEST TENNESSEE

CITY           SKY/WX    TMP DP  RH WIND       PRES   REMARKS
MEMPHIS INTL   CLOUDY    65  55  70 SE7       29.88F
NWS MEMPHIS      N/A     64 N/A N/A MISG        N/A
JACKSON        MOSUNNY   64  61  90 S7        29.91F
DYERSBURG      CLOUDY    64  53  67 S5        29.88F
PARIS          PTSUNNY   59  55  88 S6        29.92F
$$

TNZ008-025-027-028-033-062-065-066-271400-
NORTH MIDDLE TENNESSEE

CITY           SKY/WX    TMP DP  RH WIND       PRES   REMARKS
NASHVILLE      CLOUDY    66  60  81 S14       29.97S
CLARKSVILLE    LGT RAIN  58  55  90 CALM      29.94F FOG
SMYRNA         CLOUDY    63  59  87 SE5       30.00R
CROSSVILLE     PTSUNNY   59  55  87 S7        30.06R
$$

TNZ061-075-076-078-094-096-097-271400-
SOUTH MIDDLE TENNESSEE

CITY           SKY/WX    TMP DP  RH WIND       PRES   REMARKS
TULLAHOMA      CLOUDY    63  61  94 S12       30.04R
WINCHESTER     CLOUDY    64  61  88 S6        30.04S
MCMINNVILLE    SUNNY     66  63  88 S8        30.01F
COLUMBIA       MOSUNNY  N/A N/A N/A S8        29.98R
SHELBYVILLE    PTSUNNY   64  63  94 S10       30.01S
$$

TNZ017-018-042-046-047-271400-
NORTHEAST TENNESSEE

CITY           SKY/WX    TMP DP  RH WIND       PRES   REMARKS
TRI CITIES     CLOUDY    56  53  90 CALM      30.08R
$$

TNZ012-013-036-069-073-074-271400-
CENTRAL EAST TENNESSEE

CITY           SKY/WX    TMP DP  RH WIND       PRES   REMARKS
KNOXVILLE      PTSUNNY   58  53  84 CALM      30.05R
OAK RIDGE      PTSUNNY   58  52  80 CALM      30.07R
GATLINBURG     SUNNY     54  52  94 CALM      30.06R
$$

TNZ083-085-099-271400-
SOUTHEAST TENNESSEE

CITY           SKY/WX    TMP DP  RH WIND       PRES   REMARKS
CHATTANOOGA    CLOUDY    59  55  87 CALM      30.07R
$$

SKY/WX REPORTED AS FAIR MEANS FEW OR NO CLOUDS BELOW
12 THOUSAND FEET.





USA.gov is the U.S. government's official web portal to all federal, state and local government web resources and services.